Weather in Maun

Botswana     19°59′32″S   23°25′18″E
temp.,
°C
wind,
m/s
gust,
m/s
humid.,
%
clouds,
%
prec.,
mm/h
press.,
hPa
HPBL,
m
10 august, wed
wed1023:00+16sse33140 0.0 101930
02:00+14sse33120 0.0 101918
05:00+13se33150 0.0 101925
08:00+14ese26180 0.0 1021121
11:00+26e3380 0.0 1019886
14:00+31se2240 0.0 10141963
17:00+30se3250 0.0 10132098
20:00+20se33120 0.0 101634
11 august, thu
thu1123:00+16se34250 0.0 101852
02:00+15se22250 0.0 101813
05:00+13e35270 0.0 101866
08:00+15ese38300 0.0 1020177
11:00+28e45160 0.0 10181114
14:00+32ene2390 0.0 10132564
17:00+31ese1290 0.0 10122663
20:00+21se22170 0.0 101511
12 august, fri
fri1223:00+18ese36240 0.0 101773
02:00+16e36270 0.0 101670
05:00+15e33290 0.0 101731
08:00+17ene23260 0.0 101888
11:00+29ne34120 0.0 1016978
14:00+34nne1270 0.0 10122694
17:00+32s1170 0.0 10102769
20:00+22se22140 0.0 101311
13 august, sat
sat1323:00+19ese33161 0.0 101423
02:00+16ne332175 0.0 101426
05:00+15nne222553 0.0 101311
08:00+18nne362293 0.0 1014119
11:00+30nnw45134 0.0 10121103
14:00+34wnw34747 0.0 10082773
17:00+33w34773 0.0 10062965
20:00+23sw2313100 0.0 100913
14 august, sun
sun1423:00+20n11150 0.0 101011
02:00+19nnw33162 0.0 100927
05:00+15ssw33210 0.0 101240
08:00+16sse39150 0.0 1015243
11:00+25sse56130 0.0 10141023
14:00+30s44102 0.0 10101770
17:00+29s441297 0.0 10091848
20:00+19s39248 0.0 1013141